Starlink 36445

operational
NORAD ID: 67313 Int'l Des: 2026-002 Owner: SPXS Country: US Constellation: starlink
NOTLE

About Starlink 36445

Description loading...

Live Position

Loading 3D Globe...

Upcoming Passes

Altitude History

Altitude vs Time

uPlot chart will show altitude changes over time

Two-Line Element Set

1 67313U 26002J 26037.83335647 -.02314999 00000-0 -84657-1 0 9997
2 67313 42.9993 139.8834 0001413 305.4245 131.6709 15.31161438 6114
Epoch: Feb 6, 2026 • Age: 6 hours

Current Status

Altitude 478.4 km
Velocity 7.63 km/s
Sub-Earth Point 32.07°N, 101.8°E
Launch Date Jan 4, 2026
Age 33 days
Type internet

Technical Details

Classification Payload
Mass 575.00 kg
Dry Mass 530.00 kg
Total Mass 575.00 kg
Length 0.30 m
Diameter 4.10 m
Span 29.00 m
Shape Box + pan
Manufacturer SPXS
Bus Type Starlink V2MO
Phase Status In Orbit
Owner/State SPXS/US

Large Constellations

Loading constellations...